Terminal Aerodrome Forecast
Issued by NWS Wakefield, VA

Home | Current Version | Previous Version | Text Only | Print | Product List | Glossary On
Versions: 1 2 3 4 5 6 7 8 9 10 11 12 13 14 15 16 17 18 19
000
FTUS41 KAKQ 291100
TAFECG
TAF
KECG 291139Z 2912/3012 35005KT P6SM SKC
     FM291500 15007KT P6SM BKN200
     FM292100 19008KT P6SM OVC120
     FM300800 23011KT P6SM OVC080=

USA.gov is the U.S. government's official web portal to all federal, state and local government web resources and services.